Regional Weather Roundup
Issued by NWS

Home | Current Version | Previous Version | Graphics & Text | Print | Product List | Glossary On
Versions: 1 2 3 4 5 6 7 8 9 10 11 12 13 14 15 16 17 18 19 20 21 22 23 24 25 26 27 28 29 30 31 32 33 34 35 36 37 38 39 40 41 42 43 44 45 46 47 48 49 50
000
ASUS43 KIND 240809
RWRIN

WEATHER ROUNDUP FOR INDIANA
NATIONAL WEATHER SERVICE INDIANAPOLIS IN
400 AM EDT FRI OCT 24 2014

NOTE: "FAIR" INDICATES FEW OR NO CLOUDS BELOW 12,000 FEET WITH NO
SIGNIFICANT WEATHER AND/OR OBSTRUCTIONS TO VISIBILITY.

* - STATION DOES NOT REPORT WEATHER SUCH AS PRECIPITATION OR FOG.

+ - STATION NOT QUALITY CONTROLLED BY THE NATIONAL WEATHER SERVICE.
    USE DATA WITH CAUTION...ESPECIALLY DEWPOINT AND RELATIVE
    HUMIDITY OBSERVATIONS.

INZ001>003-010>013-019-020-240900-
NORTHWEST INDIANA

CITY           SKY/WX    TMP DP  RH WIND       PRES   REMARKS
GARY /AIRPORT/ CLOUDY    54  44  67 CALM      30.07R
KNOX *+        CLOUDY    49  41  74 S5        30.06F
LA PORTE +     CLOUDY    51  44  75 CALM      30.07F
MICHIGAN CITY+ CLOUDY    52  41  66 S3        30.06F
MONTICELLO +   CLOUDY    47  43  85 S6        30.07F
RENSSELAER +   CLOUDY    50  46  87 S3        30.08S
VALPARAISO     CLOUDY    50  43  77 SW5       30.06F

$$

LMZ046-743>745-240900-
SOUTHERN LAKE MICHIGAN

STATION/POSITION TIME  TEMP WIND        PRES
                       AIR  DIR/SP/G
                 (UTC) (F)  (DEG/KT/KT) (MB)
MICHIGAN CITY    0800   53  160/  6/  9   N/A

$$

INZ004-005-014>016-021>024-240900-
NORTH CENTRAL INDIANA

CITY           SKY/WX    TMP DP  RH WIND       PRES   REMARKS
GOSHEN         CLOUDY    45  41  86 S3        30.07F
LOGANSPORT +   CLOUDY    41  37  87 SE3       30.09F
ROCHESTER +    MOCLDY    48  45  87 SE3       30.08F
SOUTH BEND     CLOUDY    51  42  71 S6        30.07F
WARSAW +       CLOUDY    39  37  93 CALM      30.09S FOG

$$

INZ006>009-017-018-025>027-240900-
NORTHEAST INDIANA

CITY           SKY/WX    TMP DP  RH WIND       PRES   REMARKS
ANGOLA *+      CLOUDY    39  39 100 CALM      30.08F
AUBURN +       MOCLDY    37  36  93 CALM      30.09F
FORT WAYNE     PTCLDY    37  34  89 CALM      30.10F
HUNTINGTON +   CLEAR     38  37  97 CALM      30.09F

$$

INZ028-029-035-036-043>045-051>053-240900-
WEST CENTRAL INDIANA

CITY           SKY/WX    TMP DP  RH WIND       PRES   REMARKS
GREENCASTLE +  CLEAR     37  37 100 CALM      30.10F FOG
LAFAYETTE      CLOUDY    46  43  89 CALM      30.09
TERRE HAUTE    PTCLDY    42  41  96 CALM      30.10F

$$

INZ030>032-037>040-046>048-054>057-064-065-240900-
CENTRAL INDIANA

CITY           SKY/WX    TMP DP  RH WIND       PRES   REMARKS
CP ATTERBURY + PTCLDY    37  36  93 CALM      30.12F
FRANKFORT +    PTCLDY    44  44 100 CALM      30.11S
INDIANAPOLIS   PTCLDY    45  39  79 CALM      30.09F
-EAGLE CREEK   PTCLDY    42  39  89 CALM      30.09F
KOKOMO *+      PTCLDY    39  36  87 S3        30.10F
MARION +       CLEAR     37  35  93 CALM      30.10F
MT COMFORT *+  PTCLDY    39 N/A N/A CALM      30.10F
SHELBYVILLE    PTCLDY    38  36  92 SE5       30.11S
ZIONSVILLE +   PTCLDY    39  36  89 CALM      30.10F

$$

INZ033-034-041-042-049-050-058-059-240900-
EAST CENTRAL INDIANA

CITY           SKY/WX    TMP DP  RH WIND       PRES   REMARKS
MUNCIE         PTCLDY    40  37  89 CALM      30.10S

$$

INZ060-061-067>069-081>083-085>088-240900-
SOUTHWEST INDIANA

CITY           SKY/WX    TMP DP  RH WIND       PRES   REMARKS
EVANSVILLE     PTCLDY    43  41  93 CALM      30.12F
HUNTINGBURG *+ CLEAR     43  37  81 CALM      30.13S
WASHINGTON +   FOG       39  39 100 CALM      30.11F VSB 1

$$

INZ062-063-066-070>080-084-089>092-240900-
SOUTH CENTRAL AND SOUTHEAST INDIANA

CITY           SKY/WX    TMP DP  RH WIND       PRES   REMARKS
BLOOMINGTON    CLEAR     37  37 100 CALM      30.11S

$$




USA.gov is the U.S. government's official web portal to all federal, state and local government web resources and services.